Location: Unspecified
(0.0000°N, 0.0000°E)
Time: 06:42:40
(UTC+00:00)

Vanguard 3 - Pass Details

Date: 21 November 2019
Orbit: 508 x 3263 km, 33.3° (Epoch: 11 December)

Event Time Altitude Azimuth Distance (km) Brightness Sun altitude
Rises 14:10:36 0° 289° (WNW) 6,809 12.2 49.4°
Reaches altitude 10° 14:17:19 10° 304° (NW) 6,063 12.0 47.9°
Maximum altitude 14:29:56 20° 345° (NNW) 5,347 11.4 45.2°
Drops below altitude 10° 14:42:04 10° 26° (NNE) 5,771 11.2 42.5°
Sets 14:48:18 0° 42° (NE) 6,394 11.3 41.1°
